Погода в Безенгах

Россия / Кабардино-Балкарская Республика     43°12′55″N   43°17′10″E
темп.,
°C
ветер,
м/с
пор.,
м/с
влажн.,
%
обл.,
%
осадки,
мм/ч
давл.,
гПа
погр.,
м
8 марта, пн
пн800:00−9юз66652 0.0 102275
03:00−12юз34651 0.0 102242
06:00−13ю237315 0.0 102126
09:00−8ююв138447 0.1 1020188
12:00−7св138989 0.1 1018438
15:00−8св239094 0.4 1017334
18:00−12ююв129580 0.4 101824
21:00−14юз446964 0.5 102033
9 марта, вт
вт900:00−14юз55670 0.0 101942
03:00−15юз55660 0.0 101943
06:00−15юз556398 0.0 101944
09:00−9юз346149 0.0 1018191
12:00−7з23622 0.0 1016585
15:00−7з24703 0.1 1016658
18:00−13юз44787 0.3 101845
21:00−14юз66685 0.4 102272
10 марта, ср
ср1000:00−15юз66620 0.0 102363
03:00−16юз66627 0.0 102457
06:00−16юз556365 0.0 102544
09:00−11юз127235 0.1 1024172
12:00−8з03715 0.2 1022413
15:00−8всв03806 0.5 1021338
18:00−14ююз239080 0.3 102157
21:00−14ююз336182 0.4 102148
11 марта, чт
чт1100:00−13ю2476100 0.2 102078
03:00−13ю1388100 0.4 101950
06:00−14ю1389100 0.1 101833
09:00−13всв239399 0.2 1017171
12:00−14всв4397100 0.6 1016288
15:00−15в3396100 2.6 1016500
18:00−17в3399100 2.6 1019285
21:00−20в22100100 3.8 102131
12 марта, пт
пт1200:00−24юв1210096 0.4 102120
03:00−23ююв129996 0.7 102334
06:00−23ю1290100 0.1 102520
09:00−18в1287100 0.1 1027163
12:00−16всв3197100 0.1 1027271
15:00−16всв2297100 0.4 1027298
18:00−19ююз1296100 0.3 103021
21:00−17юз446676 0.3 103323